sat.trackr.live / text

‹ back to catalog

STARLINK-37190

NORAD 68396 · 2026-063S

PAYLOAD ACTIVE UNKNOWN

§ Identity

Operator
Country
US
Launch date
2026-03-26
Launch site
AFWTR
Launch vehicle
Mass (kg)
RCS (m²)

Purposes: comms

External: N2YO · Heavens-Above · Gunter

§ Orbital elements

Epoch: 2026-09-20T02:47:22.036128Z

Period
93.91 min
Inclination
97.2848°
Eccentricity
0.0001577
Mean motion
15.33463805 rev/d
Perigee alt
464.4 km
Apogee alt
466.6 km
Semi-major
6,843.6 km
B*
4.5119e-4
RAAN
44.0426°
Arg perigee
85.6107°
Mean anomaly
274.5316°
Rev number
2,769

§ Raw data

STARLINK-371901 68396U 26063S   26263.11622727  .00014528  00000+0  45119-3 0  99982 68396  97.2848  44.0426 0001577  85.6107 274.5316 15.33463805 27699

JSON: /api/v1/satellites/68396 · /tle

For live sub-satellite position, see the globe view (requires WebGL).

§ Visibility from observer

Set your observer location to see the next 7 days of passes ≥ 10°. The values pass through the URL so the page stays shareable.

No JS? Fill the form by hand. The geolocation button needs JavaScript.